DW9022 Weather Reports


time (UTC)temp
F
wind
direction
speed
knots
gust
knots
rain 1hr
in
rain 24hr
in
rain mn
in
humidity
%
barometer
mb
20260510201622 68 14 0.9 7.8 0.00 0.00 0.00 23 1020.1
20260510200038 69 325 0.9 4.3 0.00 0.00 0.00 24 1019.9
20260510194532 68 300 3.5 10.4 0.00 0.00 0.00 21 1020.0
20260510193018 70 17 0.9 7.0 0.00 0.00 0.00 20 1020.0
20260510191524 71 354 0.9 4.3 0.00 0.00 0.00 21 1019.8
20260510190029 69 130 0.9 7.0 0.00 0.00 0.00 23 1019.8
20260510184600 69 42 2.6 7.8 0.00 0.00 0.00 21 1019.8
20260510183042 68 4 2.6 7.0 0.00 0.00 0.00 21 1019.8
20260510181524 68 27 1.7 9.6 0.00 0.00 0.00 22 1019.9
20260510180026 68 330 2.6 7.0 0.00 0.00 0.00 21 1020.0
20260510174552 69 152 1.7 8.7 0.00 0.00 0.00 22 1020.1
20260510174502 69 245 1.7 8.7 0.00 0.00 0.00 22 1020.1
20260510173006 68 302 0.9 7.0 0.00 0.00 0.00 24 1020.0
20260510171606 68 17 5.2 13.0 0.00 0.00 0.00 23 1020.1
20260510170052 68 227 0.9 7.0 0.00 0.00 0.00 24 1020.4
20260510164605 67 187 2.6 6.1 0.00 0.00 0.00 24 1020.4
20260510163004 67 340 2.6 7.0 0.00 0.00 0.00 25 1020.5
20260510161609 67 264 1.7 6.1 0.00 0.00 0.00 29 1020.5
20260510160032 67 290 1.7 4.3 0.00 0.00 0.00 27 1020.6
20260510154529 65 8 0.9 8.7 0.00 0.00 0.00 33 1020.5
20260510153028 64 15 0.9 7.0 0.00 0.00 0.00 36 1020.1
20260510151518 64 345 2.6 7.0 0.00 0.00 0.00 37 1019.9
20260510150016 62 327 3.5 7.8 0.00 0.00 0.00 36 1019.7
20260510144524 62 63 4.3 7.0 0.00 0.00 0.00 36 1019.3
20260510143026 62 16 1.7 6.1 0.00 0.00 0.00 39 1019.3
20260510141524 61 285 0.9 7.8 0.00 0.00 0.00 43 1019.4
20260510140110 60 332 2.6 7.8 0.00 0.00 0.00 41 1019.4
20260510134605 59 350 3.5 7.8 0.00 0.00 0.00 42 1019.6
20260510133046 58 11 1.7 7.8 0.00 0.00 0.00 44 1019.4
20260510131544 57 322 5.2 8.7 0.00 0.00 0.00 44 1019.0
20260510130058 57 34 2.6 5.2 0.00 0.00 0.00 47 1018.9
20260510124605 56 21 1.7 5.2 0.00 0.00 0.00 50 1018.9
20260510123042 57 5 0.9 4.3 0.00 0.00 0.00 50 1018.6
20260510121534 55 329 0.0 4.3 0.00 0.00 0.00 55 1018.0
20260510120032 53 16 0.0 3.5 0.00 0.00 0.00 58 1017.6
20260510114524 52 356 0.9 3.5 0.00 0.00 0.00 61 1017.3
20260510113052 51 18 0.0 3.5 0.00 0.00 0.00 64 1017.2
20260510111605 51 325 0.0 1.7 0.00 0.00 0.00 64 1017.1
20260510110043 51 23 0.0 0.0 0.00 0.00 0.00 60 1016.8
20260510104534 52 23 0.0 0.0 0.00 0.00 0.00 61 1016.5
20260510103033 53 27 0.0 0.9 0.00 0.00 0.00 60 1016.3
20260510101524 54 29 0.0 0.0 0.00 0.00 0.00 57 1016.1
20260510100018 54 29 0.0 0.0 0.00 0.00 0.00 56 1015.8
20260510094520 54 29 0.0 0.9 0.00 0.00 0.00 57 1015.4
20260510093052 55 15 0.9 4.3 0.00 0.00 0.00 58 1014.6
20260510091552 55 340 0.9 2.6 0.00 0.00 0.00 59 1014.5
20260510090055 56 319 0.0 2.6 0.00 0.00 0.00 58 1014.5
20260510084544 56 7 0.0 1.7 0.00 0.00 0.00 58 1014.4
20260510083036 57 316 0.0 2.6 0.00 0.00 0.00 59 1013.9
20260510081541 57 340 0.0 1.7 0.00 0.00 0.00 59 1013.9
20260510080030 58 340 0.0 2.6 0.00 0.00 0.00 58 1013.8
20260510074534 58 350 0.0 2.6 0.00 0.00 0.00 58 1013.9
20260510073100 58 323 0.0 2.6 0.00 0.00 0.00 60 1013.8
20260510073010 58 340 0.0 2.6 0.00 0.00 0.00 60 1013.7
20260510071506 59 340 0.0 1.7 0.00 0.00 0.00 63 1013.9
20260510070004 59 294 0.0 0.0 0.00 0.01 0.00 62 1013.9
20260510064604 59 294 0.0 0.0 0.00 0.01 0.00 60 1014.0
20260510064504 59 294 0.0 0.0 0.00 0.01 0.00 60 1013.9
20260510063100 60 281 0.0 0.0 0.00 0.01 0.00 64 1014.0
20260510061558 60 281 0.0 0.0 0.00 0.01 0.00 61 1014.1
20260510060032 61 281 0.0 0.9 0.00 0.01 0.00 58 1014.2
20260510054536 61 281 0.0 0.0 0.00 0.01 0.00 56 1013.7
20260510053035 62 281 0.0 0.0 0.00 0.01 0.00 53 1013.4
20260510051536 62 281 0.0 0.0 0.00 0.01 0.00 53 1013.2
20260510050037 63 281 0.0 0.0 0.00 0.01 0.01 51 1013.0
20260510044524 63 281 0.0 2.6 0.00 0.01 0.01 53 1012.7
20260510043022 63 68 0.0 0.0 0.00 0.01 0.01 54 1012.6
20260510041519 64 68 0.0 0.0 0.00 0.01 0.01 50 1012.5
20260510040012 64 68 0.0 0.9 0.00 0.01 0.01 49 1012.2
20260510034521 65 330 0.0 0.9 0.00 0.01 0.01 49 1011.9
20260510033051 65 340 0.0 1.7 0.00 0.01 0.01 49 1011.8
20260510031527 65 302 0.0 0.9 0.00 0.01 0.01 47 1011.8
20260510030035 66 350 0.0 3.5 0.00 0.01 0.01 45 1011.4
20260510024537 66 340 1.7 3.5 0.00 0.01 0.01 44 1011.0
20260510023021 67 336 1.7 7.0 0.00 0.01 0.01 43 1010.5
20260510021524 66 1 2.6 8.7 0.00 0.01 0.01 46 1010.2
20260510020003 63 301 0.9 3.5 0.00 0.01 0.01 64 1009.7
20260510014504 65 248 0.0 1.7 0.00 0.01 0.01 59 1009.1
20260510013009 67 248 0.0 0.0 0.00 0.01 0.01 50 1008.9
20260510011510 69 248 0.0 0.0 0.00 0.01 0.01 46 1008.7
20260510010016 71 248 0.0 0.0 0.00 0.01 0.01 42 1008.6
20260510004516 72 248 0.0 0.0 0.00 0.01 0.01 39 1008.4
20260510003048 73 248 0.0 0.0 0.00 0.01 0.01 38 1008.3
20260510001546 74 248 0.0 0.0 0.00 0.01 0.01 36 1008.1
20260510000057 75 278 0.0 0.0 0.00 0.01 0.01 35 1008.0
20260509234550 75 221 0.9 3.5 0.00 0.02 0.01 32 1008.0
20260509233042 76 233 0.0 1.7 0.00 0.02 0.01 33 1008.1
20260509231541 76 218 0.9 2.6 0.00 0.02 0.01 28 1008.0
20260509230046 76 217 1.7 3.5 0.00 0.11 0.01 29 1008.1
20260509224544 77 231 0.0 3.5 0.00 0.11 0.01 30 1008.0
20260509223044 77 233 2.6 5.2 0.00 0.11 0.01 28 1007.9
20260509221538 77 238 1.7 4.3 0.00 0.11 0.01 30 1007.8
20260509220034 76 217 0.9 4.3 0.00 0.18 0.01 30 1007.9
20260509214534 77 223 1.7 4.3 0.00 0.18 0.01 31 1007.9
20260509213040 77 116 0.9 4.3 0.00 0.18 0.01 32 1007.8
20260509211514 77 249 0.9 6.1 0.00 0.18 0.01 33 1007.8
20260509210020 77 233 0.9 3.5 0.00 0.23 0.01 33 1008.0
20260509204550 77 234 1.7 6.1 0.00 0.23 0.01 35 1008.1
20260509203026 77 232 3.5 6.1 0.00 0.23 0.01 33 1008.4